Simultaneous Nadir Overpasses (SNOs) Predictions

Prediction of SNOs between NPP and METOP-C Satellite Orbit:

Table of predicted SNOs for the next 14.0 days since TLE Epoch: 8/20/2025
Index Date (NPP) Time (NPP) Lat,Lon (NPP) SZA (NPP ) Date (METOP-C) Time (METOP-C) Lat,Lon (METOP-C) SZA (METOP-C ) Distance(km) Time Diff (sec)
1 08/27/2025 08:36:03 73.56, 41.63 63.80 08/27/2025 08:37:09 73.53, 44.58 63.64 93.13 66
2 08/27/2025 09:26:46 -73.51,-150.95 116.24 08/27/2025 09:27:53 -73.44,-148.31 116.44 83.78 67
3 08/27/2025 10:17:27 73.26, 16.92 63.51 08/27/2025 10:18:37 73.21, 18.52 63.37 51.71 70
4 08/27/2025 11:08:10 -73.22,-175.66 116.54 08/27/2025 11:09:20 -73.17,-174.25 116.66 45.67 70
5 08/27/2025 11:58:51 72.97, -7.81 63.21 08/27/2025 12:00:04 72.94, -7.40 63.15 13.50 73
6 08/27/2025 12:49:34 -72.92, 159.61 116.83 08/27/2025 12:50:47 -72.90, 159.83 116.88 7.81 73
7 08/27/2025 13:40:19 72.87, -32.98 63.13 08/27/2025 13:41:27 72.87, -32.89 63.11 2.95 68
8 08/27/2025 14:31:02 -72.83, 134.43 116.91 08/27/2025 14:32:10 -72.83, 134.34 116.92 2.94 68
9 08/27/2025 15:21:48 72.83, -58.26 63.11 08/27/2025 15:22:49 72.85, -58.27 63.12 2.57 61
10 08/27/2025 16:12:32 -72.83, 109.04 116.88 08/27/2025 16:13:31 -72.86, 109.07 116.87 2.77 59
11 08/27/2025 17:03:18 72.84, -83.65 63.14 08/27/2025 17:04:11 72.83, -83.65 63.12 0.33 53
12 08/27/2025 17:54:02 -72.84, 83.66 116.85 08/27/2025 17:54:53 -72.84, 83.69 116.86 1.06 51
13 08/27/2025 18:44:48 72.84,-109.04 63.17 08/27/2025 18:45:33 72.81,-109.03 63.13 3.22 45
14 08/27/2025 19:35:32 -72.85, 58.27 116.82 08/27/2025 19:36:15 -72.82, 58.31 116.85 3.31 43
15 08/27/2025 20:26:17 72.80,-134.32 63.15 08/27/2025 20:26:55 72.79,-134.41 63.14 3.06 38
16 08/27/2025 21:17:01 -72.80, 32.99 116.84 08/27/2025 21:17:37 -72.80, 32.93 116.85 1.96 36
17 08/27/2025 22:07:47 72.80,-159.71 63.18 08/27/2025 22:08:16 72.83,-159.68 63.19 2.41 29
18 08/27/2025 22:58:31 -72.81, 7.60 116.81 08/27/2025 22:58:58 -72.83, 7.65 116.79 3.04 27
19 08/27/2025 23:49:17 72.81, 174.91 63.21 08/27/2025 23:49:38 72.81, 174.94 63.20 1.15 21
20 08/28/2025 00:40:01 -72.82, -17.79 116.78 08/28/2025 00:40:20 -72.81, -17.73 116.79 2.07 19
21 08/28/2025 01:30:46 72.77, 149.62 63.19 08/28/2025 01:31:00 72.79, 149.56 63.21 3.11 14
22 08/28/2025 02:21:30 -72.77, -43.07 116.80 08/28/2025 02:21:42 -72.79, -43.11 116.78 2.64 12
23 08/28/2025 03:12:16 72.77, 124.24 63.22 08/28/2025 03:12:22 72.77, 124.18 63.21 2.11 6
24 08/28/2025 04:03:00 -72.78, -68.46 116.77 08/28/2025 04:03:04 -72.77, -68.49 116.77 1.06 4
25 08/28/2025 04:53:46 72.78, 98.85 63.25 08/28/2025 04:53:43 72.80, 98.90 63.27 2.68 3
26 08/28/2025 05:44:30 -72.79, -93.85 116.74 08/28/2025 05:44:26 -72.76, -93.87 116.77 3.43 4
27 08/28/2025 06:35:16 72.79, 73.46 63.28 08/28/2025 06:35:05 72.78, 73.52 63.27 2.20 11
28 08/28/2025 07:26:00 -72.79,-119.23 116.71 08/28/2025 07:25:47 -72.79,-119.14 116.71 3.10 13
29 08/28/2025 08:16:45 72.74, 48.18 63.26 08/28/2025 08:16:27 72.76, 48.14 63.28 2.23 18
30 08/28/2025 09:07:29 -72.75,-144.52 116.73 08/28/2025 09:07:09 -72.77,-144.52 116.71 2.16 20
31 08/28/2025 09:58:15 72.75, 22.79 63.29 08/28/2025 09:57:49 72.74, 22.76 63.29 1.37 26
32 08/28/2025 10:48:59 -72.75,-169.90 116.70 08/28/2025 10:48:31 -72.75,-169.90 116.70 0.72 28
33 08/28/2025 11:39:45 72.76, -2.60 63.32 08/28/2025 11:39:10 72.77, -2.51 63.34 3.31 35
34 08/28/2025 12:30:29 -72.76, 164.71 116.66 08/28/2025 12:29:53 -72.73, 164.72 116.69 3.59 36
35 08/28/2025 13:21:15 72.76, -27.99 63.36 08/28/2025 13:20:32 72.75, -27.89 63.35 3.29 43
36 08/28/2025 14:11:58 -72.72, 139.43 116.69 08/28/2025 14:11:15 -72.71, 139.34 116.68 2.98 43
37 08/28/2025 15:02:44 72.72, -53.27 63.33 08/28/2025 15:01:54 72.73, -53.27 63.36 1.59 50
38 08/28/2025 15:53:28 -72.72, 114.04 116.66 08/28/2025 15:52:36 -72.74, 114.07 116.63 2.11 52
39 08/28/2025 16:44:14 72.73, -78.66 63.36 08/28/2025 16:43:16 72.71, -78.65 63.36 1.32 58
40 08/28/2025 17:34:58 -72.73, 88.65 116.62 08/28/2025 17:33:58 -72.72, 88.69 116.62 1.46 60
41 08/28/2025 18:25:43 72.68,-103.94 63.34 08/28/2025 18:24:38 72.70,-104.03 63.37 3.38 65
42 08/28/2025 19:16:27 -72.69, 63.37 116.65 08/28/2025 19:15:20 -72.70, 63.31 116.62 2.75 67
43 08/28/2025 20:07:13 72.69,-129.33 63.37 08/28/2025 20:06:00 72.68,-129.41 63.38 3.16 73
44 08/28/2025 20:57:57 -72.69, 37.98 116.62 08/28/2025 20:56:42 -72.68, 37.93 116.61 2.10 75
45 08/28/2025 21:48:38 72.44,-154.20 63.13 08/28/2025 21:47:26 72.45,-155.20 63.20 33.79 72
46 08/28/2025 22:39:21 -72.40, 13.21 116.91 08/28/2025 22:38:09 -72.41, 12.03 116.83 39.61 72
47 08/28/2025 23:30:02 72.14,-178.98 62.83 08/28/2025 23:28:54 72.13, 178.82 62.94 75.19 68
48 08/29/2025 00:20:45 -72.10, -11.58 117.21 08/29/2025 00:19:37 -72.08, -13.94 117.09 80.83 68



Historial Predications of SNOs between NPP and METOP-C
